La production de CO2, nos relevés

Partageons !

Nous sommes 3 à effectuer des relevés de la concentration du CO2 à Durbuy.
Marc Blasband, depuis longtemps, sur les hauteurs de Durbuy, Jacques Ninane à OZO et moi à Grandhan.
Ce n’est pas pour nous amuser mais pour voir l’évolution des pollutions en général celle du CO2 en particulier.
Marc a pris contact avec d’autres personnes pour pouvoir comparer les évolutions, d’un pays à l’autre.

Ceci est un fichier qui reprend les concentrations de CO2 toutes les heures depuis le 02 février sauf 3 jours de panne…Pour rappel, la concentration de CO2 dans l’atmosphère, qui était d’environ 280 ppm à l’aube de l’ère industrielle (vers 1750), a explosé et est passée à 400 ppm en 2013, un niveau pourtant jamais atteint depuis 1 million d’années, encore moins de manière aussi soudaine.

Il faut noter que d’autres gaz à effet de serre (GES) comme le méthane (CH4) et l’oxyde nitreux (NO2) connaissent globalement la même trajectoire que le CO2 depuis l’ère pré-industrielle (voir le graphique ci-dessous) et ont également un impact sur le réchauffement climatique.
Vous remarquerez que la quantité de CO2 est plus importante aujourd’hui qu’en 2013…. :mrgreen:

Record Time Temp(℃) Humi(%RH) DP(℃) CO2(PPM)
1 02-02-20 17:29:03 21 57,8 28 412
2 02-02-20 18:29:03 14,2 69,6 30,5 412
3 02-02-20 19:29:03 13,2 72 31 410
4 02-02-20 20:29:03 12,8 73,2 31,4 408
5 02-02-20 21:29:03 12,6 74,1 31,7 408
6 02-02-20 22:29:03 12,3 75,8 32,6 409
7 02-02-20 23:29:03 12,1 77,3 33,4 409
8 02-03-20 00:29:03 11,9 78,5 34 408
9 02-03-20 01:29:03 11,6 79,7 34,4 405
10 02-03-20 02:29:03 11,4 80 34,3 408
11 02-03-20 03:29:03 11,2 80,2 34,2 407
12 02-03-20 04:29:03 11,1 80,6 34,3 410
13 02-03-20 05:29:03 11,1 80,5 34,2 409
14 02-03-20 06:29:03 11,1 80,6 34,3 409
15 02-03-20 07:29:03 11 80,7 34,2 409
16 02-03-20 08:29:03 10,9 80,3 33,7 407
17 02-03-20 09:29:03 11,3 77 32 398
18 02-03-20 10:29:03 11,9 74,1 30,7 396
19 02-03-20 11:29:03 12,3 73,1 30,6 396
20 02-03-20 12:29:03 12,2 72,2 29,8 397
21 02-03-20 13:29:03 12,1 72 29,5 394
22 02-03-20 14:29:03 12,5 71 29,3 394
23 02-03-20 15:29:03 13,6 70,3 30,2 429
24 02-03-20 16:29:03 13,6 69,5 29,6 405
25 02-03-20 17:29:03 12,6 72,9 30,9 407
26 02-03-20 18:29:03 11,9 75,4 31,7 406
27 02-03-20 19:29:03 11,3 76,3 31,5 407
28 02-03-20 20:29:03 11 77,3 31,7 408
29 02-03-20 21:29:03 10,7 77,9 31,7 410
30 02-03-20 22:29:03 10,2 77,9 30,8 405
31 02-03-20 23:29:03 9,8 78,7 30,7 405
32 02-04-20 00:29:03 9,3 78 29,3 402
33 02-04-20 01:29:03 8,8 77,6 28 403
34 02-04-20 02:29:03 8,4 77,8 27,4 399
35 02-04-20 03:29:03 7,9 78,7 27 402
36 02-04-20 04:29:03 7,6 79 26,5 402
37 02-04-20 05:29:03 7,3 79,1 25,9 401
38 02-04-20 06:29:03 7,2 79,4 25,9 400
39 02-04-20 07:29:03 7,1 78,9 25,3 402
40 02-04-20 08:29:03 7 79,5 25,5 402
41 02-04-20 09:29:03 6,9 76,4 23,1 401
42 02-04-20 10:29:03 7,7 77,8 25,9 400
43 02-04-20 11:29:03 11,6 65,3 23,8 407
44 02-04-20 12:29:03 11,3 66,3 24,1 406
45 02-04-20 13:29:03 12,6 60,1 21,2 400
46 02-04-20 14:29:03 11,6 63 22,1 408
47 02-04-20 15:29:03 11,2 64 22,2 402
48 02-04-20 16:29:03 9,8 69,3 23,9 403
49 02-04-20 17:29:03 8,6 73,7 24,9 403
50 02-04-20 18:29:03 8,1 77,1 26,3 412
51 02-04-20 19:29:03 8,2 78,3 27,3 413
52 02-04-20 20:29:03 8,2 78,8 27,7 409
53 02-04-20 21:29:03 8,2 80,1 28,6 410
54 02-04-20 22:29:03 8,1 80,2 28,5 411
55 02-04-20 23:29:03 8,1 80,9 28,9 411
56 02-05-20 00:29:03 7,9 80,5 28,2 410
57 02-05-20 01:29:03 7,6 80,3 27,4 411
58 02-05-20 02:29:03 7,5 80,4 27,3 409
59 02-05-20 03:29:03 7,5 80,5 27,3 413
60 02-05-20 04:29:03 7,4 80,7 27,2 414
61 02-05-20 05:29:03 7,2 81,1 27,1 418
62 02-05-20 06:29:03 7 81,4 26,8 417
63 02-05-20 07:29:03 7 81,6 26,9 422
64 02-05-20 08:29:03 6,9 81,8 26,8 429
65 02-05-20 09:29:03 8 79,1 27,5 420
66 02-05-20 10:29:03 9,8 72,4 26,2 409
67 02-05-20 11:29:03 10,9 66,8 23,8 426
68 02-05-20 12:29:03 11,9 63,5 22,9 426
69 02-05-20 13:29:03 12,5 60,3 21,3 427
70 02-05-20 14:29:03 12,8 59,4 21 424
71 02-05-20 15:29:03 14,8 55,9 20,6 448
72 02-05-20 16:29:03 14,9 53,9 19,2 439
73 02-05-20 17:29:03 11,7 61,2 20,9 442
74 02-05-20 18:29:03 9,4 67,1 21,6 454
75 02-05-20 19:29:03 7,8 69,7 20,4 456
76 02-05-20 20:29:03 6,7 71,9 19,5 459
77 02-05-20 21:29:03 5,8 73,3 18,2 457
78 02-05-20 22:29:03 5,3 74,7 17,7 460
79 02-05-20 23:29:03 4,9 76,6 17,7 461
80 02-06-20 00:29:03 4,6 77,7 17,4 462
81 02-06-20 01:29:03 4,4 77,8 16,8 468
82 02-06-20 02:29:03 4,3 78,2 16,7 463
83 02-06-20 03:29:03 4,1 78,7 16,2 457
84 02-06-20 04:29:03 3,9 79,6 16 474
85 02-06-20 05:29:03 3,7 80 15,5 464
86 02-06-20 06:29:03 3,6 80,7 15,5 460
87 02-06-20 07:29:03 3,4 80,5 14,5 465
88 02-06-20 08:29:03 3,5 80,4 14,9 457
89 02-06-20 09:29:03 4,1 79,5 16,8 455
90 02-06-20 10:29:03 6 73,2 18,6 448
91 02-06-20 11:29:03 8,3 69 21 448
92 02-06-20 12:29:03 14 54,4 18,6 445
93 02-06-20 13:29:03 27,2 26,6 6,2 431
94 02-06-20 14:29:03 24 34,9 11,3 441
95 02-06-20 15:29:03 24,2 33,8 10,5 437
96 02-06-20 16:29:03 20,7 37,4 11,2 432
97 02-06-20 17:29:03 15,6 45,9 13,7 433
98 02-06-20 18:29:03 12,1 53,3 15,4 451
99 02-06-20 19:29:03 9,9 60,2 17,4 464
100 02-06-20 20:29:03 8,2 63,8 17,1 468
101 02-06-20 21:29:03 6,8 66,7 16,2 481
102 02-06-20 22:29:03 5,7 68,1 14,4 458
103 02-06-20 23:29:03 4,9 69,7 13,1 458
104 02-07-20 00:29:03 4,2 71,8 12,2 457
105 02-07-20 01:29:03 3,5 72,6 9,9 461
106 02-07-20 02:29:03 3 73,3 8,1 464
107 02-07-20 03:29:03 2,4 74,1 5,3 465
108 02-07-20 04:29:03 2 74,9 3,2 465
109 02-07-20 05:29:03 1,6 75,5 0,5 467
110 02-07-20 06:29:03 1,2 76,4 -2,9 473
111 02-07-20 07:29:03 1 76,7 -5,2 468
112 02-07-20 08:29:03 1 76,6 -5,3 454
113 02-07-20 09:29:03 8,2 58 12,9 462
114 02-07-20 10:29:03 23 30 6,6 436
115 02-07-20 11:29:03 38 14,9 0,7 456
116 02-07-20 12:29:03 34,8 19,7 3,7 457
117 02-07-20 13:29:03 41,2 14,8 1,8 460
118 02-07-20 14:29:03 34,4 19,6 3,5 447
119 02-07-20 15:29:03 31,1 21 3,3 483
120 02-07-20 16:29:03 26,7 23,8 3,5 452
121 02-07-20 17:29:03 20,5 27,5 2,9 440
122 02-07-20 18:29:03 16,2 35 5,6 443
123 02-07-20 19:29:03 13,5 42,4 8,8 449
124 02-07-20 20:29:03 11,4 44,7 8 444
125 02-07-20 21:29:03 10 51 10,8 448
126 02-07-20 22:29:03 8,8 53,8 10,9 450
127 02-07-20 23:29:03 8 54 9,7 449
128 02-08-20 00:29:03 7,4 57,8 11,2 446
129 02-08-20 01:29:03 7,1 56,8 9,9 445
130 02-08-20 02:29:03 6,8 60,6 11,9 444
131 02-08-20 03:29:03 6,4 61,9 11,9 446
132 02-08-20 04:29:03 6,3 62,8 12,3 442
133 02-08-20 05:29:03 6,5 63,6 13,3 442
134 02-08-20 06:29:03 6,6 64,7 14,3 441
135 02-08-20 07:29:03 6,7 64,3 14,3 442
136 02-08-20 08:29:03 7 64,8 15,3 437
137 02-08-20 09:29:03 7,5 66,9 17,8 433
138 02-08-20 10:29:03 8,8 64,6 18,8 431
139 02-08-20 11:29:03 19,3 37,7 10,4 430
140 02-08-20 12:29:03 14,8 48,7 15,1 426
141 02-08-20 13:29:03 14,9 50,5 16,6 424
142 02-08-20 14:29:03 15,4 48,7 15,7 423
143 02-08-20 15:29:03 15 50,6 16,7 422
144 02-08-20 16:29:03 14,1 54,1 18,5 426
145 02-08-20 17:29:03 13,1 56,9 19,4 427
146 02-08-20 18:29:03 12,2 59,2 20 426
147 02-08-20 19:29:03 11,7 60,6 20,4 425
148 02-08-20 20:29:03 11,3 63,7 22,1 424
149 02-08-20 21:29:03 11 65,1 22,7 425
150 02-08-20 22:29:03 10,9 66,3 23,5 429
151 02-08-20 23:29:03 10,5 68,7 24,6 425
152 02-09-20 00:29:03 10 69 24 430
153 02-09-20 01:29:03 9,5 70,4 24,2 426
154 02-09-20 02:29:03 9,2 73,6 25,9 418
155 02-09-20 03:29:03 9,3 73,9 26,3 416
156 02-09-20 04:29:03 9,3 73,6 26,1 414
157 02-09-20 05:29:03 9,4 74,5 27 415
158 02-09-20 06:29:03 9,8 74,1 27,4 414
159 02-09-20 07:29:03 9,8 72,7 26,4 412
160 02-09-20 08:29:03 10 69,3 24,2 412
Record Time Temp(℃) Humi(%RH) DP(℃) CO2(PPM)
1 02-12-20 15:13:10 15,6 47,3 14,8 427
2 02-12-20 16:13:10 13 52,4 15,9 428
3 02-12-20 17:13:10 11,7 56,8 17,6 426
4 02-12-20 18:13:10 10,1 60,7 18,1 426
5 02-12-20 19:13:10 8,9 64,4 18,8 429
6 02-12-20 20:13:10 7,9 68,5 19,8 430
7 02-12-20 21:13:10 7,2 70,1 19,4 434
8 02-12-20 22:13:10 6,6 71,4 18,9 442
9 02-12-20 23:13:10 6,1 72,3 18,3 460
10 02-13-20 00:13:10 5,6 73 17,4 461
11 02-13-20 01:13:10 5,1 73,4 16,2 462
12 02-13-20 02:13:10 4,5 74,2 14,8 458
13 02-13-20 03:13:10 4,1 74,9 13,8 446
14 02-13-20 04:13:10 4 75,2 13,6 437
15 02-13-20 05:13:10 4 76 14,1 429
16 02-13-20 06:13:10 4,2 76,2 15 421
17 02-13-20 07:13:10 4,7 76,2 16,8 414
18 02-13-20 08:13:10 5,3 76,1 18,6 410
19 02-13-20 09:13:10 6,2 71,5 18 408
20 02-13-20 10:13:10 7,2 69,1 18,7 411
21 02-13-20 11:13:10 7,2 71 20,1 410
22 02-13-20 12:13:10 7,1 74,7 22,4 411
23 02-13-20 13:13:10 11 72,3 28,1 409
24 02-13-20 14:13:10 17,8 53,5 21,8 414
25 02-13-20 15:13:10 18,3 46,5 16,6 416
26 02-13-20 16:13:10 15 52,2 18 415
27 02-13-20 17:13:10 13,1 57,8 20,1 414
28 02-13-20 18:13:10 11,7 64,7 23,5 413
29 02-13-20 19:13:10 10,7 67,4 24 414
30 02-13-20 20:13:10 10,1 70,1 25 415
31 02-13-20 21:13:10 9,7 73,3 26,6 416
32 02-13-20 22:13:10 9,4 74,2 26,7 418
33 02-13-20 23:13:10 9,3 74,6 26,8 420
34 02-14-20 00:13:10 9 75,4 26,9 420
35 02-14-20 01:13:10 8,8 76,6 27,3 421
36 02-14-20 02:13:10 8,6 76,1 26,6 424
37 02-14-20 03:13:10 8,5 76,5 26,7 423
38 02-14-20 04:13:10 8,4 77,9 27,5 426
39 02-14-20 05:13:10 8,1 76,8 26,1 425
40 02-14-20 06:13:10 7,9 76,8 25,6 422
41 02-14-20 07:13:10 7,8 77,4 25,8 426
42 02-14-20 08:13:10 7,8 77,3 25,8 426
43 02-14-20 09:13:10 7,7 76,9 25,3 432
44 02-14-20 10:13:10 7,9 76,7 25,6 429
45 02-14-20 11:13:10 8,6 74,1 25,2 447
46 02-14-20 12:13:10 9,5 72,7 25,8 426
47 02-14-20 13:13:10 10,4 68,3 24,2 419
48 02-14-20 14:13:10 11,2 64,1 22,3 419
49 02-14-20 15:13:10 11,7 62,2 21,6 418
50 02-14-20 16:13:10 11,8 62,2 21,7 418
51 02-14-20 17:13:10 11,8 61 20,8 417
52 02-14-20 18:13:10 11,5 64 22,7 427
53 02-14-20 19:13:10 11 66,2 23,6 435
54 02-14-20 20:13:10 10,5 66,9 23,3 426
55 02-14-20 21:13:10 10,1 68,5 23,8 430
56 02-14-20 22:13:10 9,6 70,9 24,7 450
57 02-14-20 23:13:10 9 71,4 24 427
58 02-15-20 00:13:10 8,7 71,6 23,6 426
59 02-15-20 01:13:10 8,4 73,3 24,2 433
60 02-15-20 02:13:10 8,4 73,4 24,3 433
61 02-15-20 03:13:10 8,1 74,8 24,7 435
62 02-15-20 04:13:10 7,8 75 24,2 436
63 02-15-20 05:13:10 7,5 76,2 24,4 436
64 02-15-20 06:13:10 7,3 76,7 24,2 432
65 02-15-20 07:13:10 7,2 76,7 24 436
66 02-15-20 08:13:10 7,1 77,3 24,2 434
67 02-15-20 09:13:10 7,2 78,3 25,1 422
68 02-15-20 10:13:10 7,4 78,3 25,6 427
69 02-15-20 11:13:10 8,4 77,2 27 424
70 02-15-20 12:13:10 10,6 72 27,2 423
71 02-15-20 13:13:10 27,2 30,3 9,3 441
72 02-15-20 14:13:10 24,3 35,2 11,8 435
73 02-15-20 15:13:10 25,3 33,7 11,1 432
74 02-15-20 16:13:10 22,3 37,1 12 430
75 02-15-20 17:13:10 19 43,2 14,6 426
76 02-15-20 18:13:10 17,6 45,6 15,3 428
77 02-15-20 19:13:10 15,4 49,9 16,6 421
78 02-15-20 20:13:10 13,8 53,9 18 423
79 02-15-20 21:13:10 12,8 57,2 19,3 420
80 02-15-20 22:13:10 12,3 58,2 19,4 418
81 02-15-20 23:13:10 12,1 59,5 20,1 417
82 02-16-20 00:13:10 11,9 61,3 21,2 416
83 02-16-20 01:13:10 12 64,1 23,4 414
84 02-16-20 02:13:10 12,3 66,4 25,6 413
85 02-16-20 03:13:10 12,6 65,8 25,5 413
86 02-16-20 04:13:10 12,6 64,5 24,6 414
87 02-16-20 05:13:10 12,6 64,2 24,3 412
88 02-16-20 06:13:10 12,7 67,3 26,8 412
89 02-16-20 07:13:10 12,2 74,3 31,3 413
90 02-16-20 08:13:10 11,8 78,1 33,6 414
91 02-16-20 09:13:10 11,9 79,1 34,4 413
92 02-16-20 10:13:10 12 78,6 34,2 411
93 02-16-20 11:13:10 12,5 75,4 32,6 416
94 02-16-20 12:13:10 13,6 68,4 28,8 417
95 02-16-20 13:13:10 19,4 48 18,8 429
96 02-16-20 14:13:10 20,3 48,2 19,7 420
97 02-16-20 15:13:10 21,6 46,2 19 418
98 02-16-20 16:13:10 22,1 45,8 19,1 420
99 02-16-20 17:13:10 24,4 40,8 16,5 419
100 02-16-20 18:13:10 22,5 42,3 16,5 418
3 02-16-20 18:17:26 18,5 50,6 20,1 417
4 02-16-20 19:17:26 17,8 53,8 22 417
5 02-16-20 20:17:26 17,2 58,1 24,8 418
6 02-16-20 21:17:26 15,2 62 25,8 422
7 02-16-20 22:17:26 14 64,1 26 422
8 02-16-20 23:17:26 13,1 65,5 26 420
9 02-17-20 00:17:26 12,2 65,7 24,9 419
10 02-17-20 01:17:26 11,4 67 24,7 419
11 02-17-20 02:17:26 11 67,9 24,8 419
12 02-17-20 03:17:26 10,7 68 24,4 420
13 02-17-20 04:17:26 10,5 69 24,8 421
14 02-17-20 05:17:26 10,3 68,5 24,2 420
15 02-17-20 06:17:26 10 68,4 23,6 422
16 02-17-20 07:17:26 9,7 69,4 23,8 426
17 02-17-20 08:17:26 9,6 69,6 23,8 421
18 02-17-20 09:17:26 9,9 70,2 24,7 423
19 02-17-20 10:17:26 11 67,5 24,5 426
20 02-17-20 11:17:26 13,3 60,3 22,3 420
21 02-17-20 12:17:26 23,4 39,5 14,8 425
22 02-17-20 13:17:26 26,1 32 10,2 428
23 02-17-20 14:17:26 20,5 42,7 15,3 428
24 02-17-20 15:17:26 20,7 42,8 15,6 428
25 02-17-20 16:17:26 19,9 43,8 15,8 426
26 02-17-20 17:17:26 17,3 46,4 15,7 427
27 02-17-20 18:17:26 14,6 51,2 16,8 431
28 02-17-20 19:17:26 13 55,4 18,2 430
29 02-17-20 20:17:26 11,9 58,2 18,9 423
30 02-17-20 21:17:26 11,2 61,2 20,1 424
31 02-17-20 22:17:26 10,8 63,2 21 424
32 02-17-20 23:17:26 10,4 64,8 21,6 424
33 02-18-20 00:17:26 10,4 64,8 21,6 424
34 02-18-20 01:17:26 10 65 21,1 423
35 02-18-20 02:17:26 9,8 65,9 21,4 424
36 02-18-20 03:17:26 9,4 67,2 21,7 423
37 02-18-20 04:17:26 9 68,3 21,8 422
38 02-18-20 05:17:26 8,7 69,4 22 424
39 02-18-20 06:17:26 8,5 70 22,1 424
40 02-18-20 07:17:26 8,4 69,9 21,8 423
41 02-18-20 08:17:26 8,3 68,3 20,5 426
42 02-18-20 09:17:26 8,2 68,6 20,5 407
43 02-18-20 10:17:26 8,9 68 21,4 407
44 02-18-20 11:17:26 15,3 49,9 16,5 410
45 02-18-20 12:17:26 22,2 35,3 10,5 418
46 02-18-20 13:17:26 16,8 44,6 13,8 434
47 02-18-20 14:17:26 16,4 45,2 13,9 410
48 02-18-20 15:17:26 16,2 45,4 13,9 409
49 02-18-20 16:17:26 15,2 47,3 14,4 410
50 02-18-20 17:17:26 14,9 51,8 17,6 426
51 02-18-20 18:17:26 13,6 49,3 14,2 406
52 02-18-20 19:17:26 11,7 57 17,7 411
53 02-18-20 20:17:26 10,3 60,2 18,1 412
54 02-18-20 21:17:26 9,4 62,9 18,6 408
55 02-18-20 22:17:26 9 64 18,7 405
56 02-18-20 23:17:26 8,8 65,9 19,7 404
57 02-19-20 00:17:26 8,6 66,6 19,8 402
58 02-19-20 01:17:26 8,2 73,8 24,2 398
59 02-19-20 02:17:26 7,6 79,5 26,9 396
60 02-19-20 03:17:26 7,3 82,6 28,3 395
61 02-19-20 04:17:26 6,6 79,6 24,6 394
62 02-19-20 05:17:26 6 80,8 23,8 395
63 02-19-20 06:17:26 5,8 82,3 24,2 396
64 02-19-20 07:17:26 5,8 81,1 23,4 404
65 02-19-20 08:17:26 5,7 79,5 22,1 401
66 02-19-20 09:17:26 5,8 79,7 22,5 405
67 02-19-20 10:17:26 6,5 78,2 23,3 409
68 02-19-20 11:17:26 6,5 78,3 23,4 409
69 02-19-20 12:17:26 8,4 67,6 20,2 402
70 02-19-20 13:17:26 7,8 69,7 20,4 401
71 02-19-20 14:17:26 15,1 52,8 18,6 409
72 02-19-20 15:17:26 33 23,8 6,6 421
73 02-19-20 16:17:26 27,6 26,2 6,1 428
74 02-19-20 17:17:26 22,6 31 7,2 418
75 02-19-20 18:17:26 18,6 37 9,2 415
76 02-19-20 19:17:26 16,1 42,3 11,3 412
77 02-19-20 20:17:26 13,4 47,4 12,5 414
78 02-19-20 21:17:26 11,6 52,4 14,1 412
79 02-19-20 22:17:26 10,6 58,6 17,3 410
80 02-19-20 23:17:26 9,8 61,5 18,2 408
81 02-20-20 00:17:26 9,2 64,9 19,7 408
82 02-20-20 01:17:26 8,9 66,2 20,1 408
83 02-20-20 02:17:26 8,6 68,6 21,3 405
84 02-20-20 03:17:26 8,4 70,3 22,1 406
85 02-20-20 04:17:26 8,5 73,3 24,4 404
86 02-20-20 05:17:26 8,5 74,9 25,5 406
87 02-20-20 06:17:26 8,6 75,9 26,4 403
88 02-20-20 07:17:26 8,7 77,2 27,6 401
89 02-20-20 08:17:26 8,8 76,5 27,3 402
90 02-20-20 09:17:26 8,8 75,8 26,8 401
91 02-20-20 10:17:26 8,9 74,8 26,2 408
92 02-20-20 11:17:26 9 74 25,9 401
93 02-20-20 12:17:26 10,1 71,1 25,7 398
94 02-20-20 13:17:26 11 67 24,1 400
95 02-20-20 14:17:26 11,7 66,7 25 400
96 02-20-20 15:17:26 11,8 65,9 24,5 400
97 02-20-20 16:17:26 14,6 57,5 21,7 401
98 02-20-20 17:17:26 12,8 60 21,4 401
99 02-20-20 18:17:26 12,3 60,4 21,1 398
100 02-20-20 19:17:26 11,6 62,8 21,9 399
101 02-20-20 20:17:26 10,9 66 23,3 397
102 02-20-20 21:17:26 10,5 69,8 25,4 399
103 02-20-20 22:17:26 10 74,3 27,9 399
104 02-20-20 23:17:26 9,6 73,1 26,3 402
105 02-21-20 00:17:26 8,8 72,4 24,3 403
106 02-21-20 01:17:26 8,3 73,1 23,9 403
107 02-21-20 02:17:26 8 73,3 23,4 403
108 02-21-20 03:17:26 7,3 73,4 22 409
109 02-21-20 04:17:26 6,8 72,9 20,5 406
110 02-21-20 05:17:26 6,2 74,7 20,2 410
111 02-21-20 06:17:26 5,8 74,8 19,2 408
112 02-21-20 07:17:26 5,4 75,2 18,3 409
113 02-21-20 08:17:26 5 76,1 17,7 409
114 02-21-20 09:17:26 4,6 74,7 15,4 411
115 02-21-20 10:17:26 4,7 76,6 17 417
116 02-21-20 11:17:26 5,9 74,3 19,1 417
117 02-21-20 12:17:26 15 51,5 17,4 428
118 02-21-20 13:17:26 29 26 6,6 431
119 02-21-20 14:17:26 23,7 31,4 8,2 420
120 02-21-20 15:17:26 18,4 39,5 11,1 412
121 02-21-20 16:17:26 18,8 38,4 10,5 410
122 02-21-20 17:17:26 16,4 41,6 11 406
123 02-21-20 18:17:26 16 43,7 12,3 408
124 02-21-20 19:17:26 14,7 46,7 13,4 413
125 02-21-20 20:17:26 12,9 49,9 13,9 412
126 02-21-20 21:17:26 11,7 57,4 18 528
127 02-21-20 22:17:26 10,3 57,8 16,3 420
128 02-21-20 23:17:26 9,4 60,7 17 416
129 02-22-20 00:17:26 8,6 63 17,2 417
130 02-22-20 01:17:26 7,9 63,7 16,4 407
131 02-22-20 02:17:26 7,5 64,6 16,2 406
132 02-22-20 03:17:26 7,1 66,9 17 408
133 02-22-20 04:17:26 6,8 67,7 16,9 405
134 02-22-20 05:17:26 6,6 69,3 17,5 402
135 02-22-20 06:17:26 6,3 70 17,2 400
136 02-22-20 07:17:26 6,1 70,9 17,3 401
137 02-22-20 08:17:26 5,9 71,2 17 400
138 02-22-20 09:17:26 5,8 71,9 17,2 402
139 02-22-20 10:17:26 6,1 71,9 18 404
140 02-22-20 11:17:26 8,4 63,6 17,3 400
141 02-22-20 12:17:26 8,9 61 16,3 398
142 02-22-20 13:17:26 9,5 60,8 17,2 400
143 02-22-20 14:17:26 11,3 54,9 15,6 397
144 02-22-20 15:17:26 11,2 57,2 17,2 403
145 02-22-20 16:17:26 12,3 57,6 19 407
146 02-22-20 17:17:26 11,9 59,6 19,9 406
147 02-22-20 18:17:26 11,6 62,9 22 406
148 02-22-20 19:17:26 11,4 65,6 23,7 407
149 02-22-20 20:17:26 11,4 69,8 26,8 501
150 02-22-20 21:17:26 10,9 72 27,7 408
151 02-22-20 22:17:26 10,7 74 28,8 408
152 02-22-20 23:17:26 10,8 75,4 30 405
153 02-23-20 00:17:26 10,9 75,9 30,5 402
154 02-23-20 01:17:26 10,9 75,5 30,2 402
155 02-23-20 02:17:26 10,9 75,2 30 404
156 02-23-20 03:17:26 10,9 76,4 30,9 405
157 02-23-20 04:17:26 10,9 76 30,6 403
158 02-23-20 05:17:26 10,9 76,1 30,7 404
159 02-23-20 06:17:26 10,9 75,9 30,5 405
160 02-23-20 07:17:26 10,8 76,5 30,8 404
161 02-23-20 08:17:26 10,8 77,8 31,8 401
162 02-23-20 09:17:26 10,8 79,1 32,7 401
163 02-23-20 10:17:26 11 79,8 33,5 401
164 02-23-20 11:17:26 11,2 81,1 34,8 400
4 02-23-20 12:44:39 12,9 79,1 35,9 410
5 02-23-20 13:44:39 13,1 78,9 36 413
6 02-23-20 14:44:39 13,3 79,1 36,5 412
7 02-23-20 15:44:39 13,6 80 37,5 421
8 02-23-20 16:44:39 13,4 79,6 37 412
9 02-23-20 17:44:39 13,2 80,2 37,1 412
10 02-23-20 18:44:39 12,9 79,5 36,2 412
11 02-23-20 19:44:39 12,5 77,8 34,4 419
12 02-23-20 20:44:39 12 77,3 33,3 421
13 02-23-20 21:44:39 11,5 74 30,1 421
14 02-23-20 22:44:39 11 71,3 27,3 422
15 02-23-20 23:44:39 10,6 75,2 29,5 429
16 02-24-20 00:44:39 10,2 74,9 28,6 425
17 02-24-20 01:44:39 9,7 75,3 28,1 436
18 02-24-20 02:44:39 9,3 75,8 27,7 454
19 02-24-20 03:44:39 9 76,2 27,4 452
20 02-24-20 04:44:39 8,8 76,7 27,4 447
21 02-24-20 05:44:39 8,6 77,1 27,3 434
22 02-24-20 06:44:39 8,3 76,3 26,1 424
23 02-24-20 07:44:39 8,2 77 26,4 431
24 02-24-20 08:44:39 8,2 77,3 26,6 421
25 02-24-20 09:44:39 8,6 78,3 28,1 428
26 02-24-20 10:44:39 9,3 78,5 29,6 431
27 02-24-20 11:44:39 11 79,1 33 409
28 02-24-20 12:44:39 11,9 80 35,1 408
29 02-24-20 13:44:39 12,6 79,2 35,5 406
30 02-24-20 14:44:39 12,9 78 35,1 407
31 02-24-20 15:44:39 13,3 77,5 35,3 411
32 02-24-20 16:44:39 13,1 74,8 33 405
33 02-24-20 17:44:39 12,9 74,4 32,4 405
34 02-24-20 18:44:39 12,4 74,7 31,9 408
35 02-24-20 19:44:39 12,1 75,5 32,1 407
36 02-24-20 20:44:39 11,9 76,1 32,2 411
37 02-24-20 21:44:39 11,7 77,7 33,1 411
38 02-24-20 22:44:39 11,5 78,4 33,3 410
39 02-24-20 23:44:39 11,4 78,4 33,2 411
40 02-25-20 00:44:39 11,5 78,5 33,4 409
41 02-25-20 01:44:39 11,4 80,3 34,5 408
42 02-25-20 02:44:39 11,2 81,7 35,3 411
43 02-25-20 03:44:39 11,1 82 35,3 411
44 02-25-20 04:44:39 11 80,4 34 412
45 02-25-20 05:44:39 10,7 79,5 32,8 408
46 02-25-20 06:44:39 10,2 79,4 31,9 418
47 02-25-20 07:44:39 9,9 79,2 31,2 424
48 02-25-20 08:44:39 9,9 78,5 30,7 419
49 02-25-20 09:44:39 11,8 73,7 30,3 417
50 02-25-20 10:44:39 15,9 61,1 25,9 414
51 02-25-20 11:44:39 19,4 53,9 23,5 428
52 02-25-20 12:44:39 29,4 22 3,4 419
53 02-25-20 13:44:39 31,3 19,4 2 424
54 02-25-20 14:44:39 16,9 43,8 13,2 414
55 02-25-20 15:44:39 13,2 56,1 18,9 410
56 02-25-20 16:44:39 12,5 58,9 20,2 407
57 02-25-20 17:44:39 11,8 63,9 23 414
58 02-25-20 18:44:39 10,3 65,8 22,2 410
59 02-25-20 19:44:39 9,3 68,2 22,2 414
60 02-25-20 20:44:39 8,5 68,2 20,8 413
61 02-25-20 21:44:39 8 70,1 21,1 413
62 02-25-20 22:44:39 7,7 71,4 21,4 408
63 02-25-20 23:44:39 7,5 72,8 22 404
64 02-26-20 00:44:39 7,2 73 21,5 403
65 02-26-20 01:44:39 6,7 73,3 20,5 404
66 02-26-20 02:44:39 6,4 73,2 19,7 403
67 02-26-20 03:44:39 6,1 73,6 19,2 401
68 02-26-20 04:44:39 5,9 73,7 18,7 401
69 02-26-20 05:44:39 5,8 74 18,6 401
70 02-26-20 06:44:39 5,6 74,5 18,4 404
71 02-26-20 07:44:39 5,5 75,4 18,7 409
72 02-26-20 08:44:39 5,7 74,9 19 409
73 02-26-20 09:44:39 6 75,8 20,4 426
74 02-26-20 10:44:39 6,8 74,7 21,7 413
75 02-26-20 11:44:39 9,4 68,7 22,8 419
76 02-26-20 12:44:39 12,4 58,6 19,8 417
77 02-26-20 13:44:39 13,9 54 18,2 413
78 02-26-20 14:44:39 12 57,2 18,3 414
79 02-26-20 15:44:39 13,4 51,5 15,7 412
80 02-26-20 16:44:39 13,1 51,9 15,6 425
81 02-26-20 17:44:39 11,6 59,8 19,7 424
82 02-26-20 18:44:39 9,8 63,6 19,8 426
83 02-26-20 19:44:39 8,5 65,7 19 416
84 02-26-20 20:44:39 7,7 67,4 18,6 414
85 02-26-20 21:44:39 7,1 68,9 18,4 415
86 02-26-20 22:44:39 6,8 70,7 18,9 416
87 02-26-20 23:44:39 6,4 70,7 18 414
88 02-27-20 00:44:39 6,2 72 18,3 412
89 02-27-20 01:44:39 5,9 72,4 17,8 413
90 02-27-20 02:44:39 5,5 73,1 17,2 410
91 02-27-20 03:44:39 5,3 74,5 17,5 411
92 02-27-20 04:44:39 5,1 75,1 17,3 413
93 02-27-20 05:44:39 4,9 75,4 16,9 418
94 02-27-20 06:44:39 4,8 75,7 16,8 416
95 02-27-20 07:44:39 4,9 76,4 17,6 422
96 02-27-20 08:44:39 5,2 75,7 18 414
97 02-27-20 09:44:39 5,7 74,5 18,7 403
98 02-27-20 10:44:39 6,3 72,7 19,1 402
99 02-27-20 11:44:39 6,7 72 19,6 403
100 02-27-20 12:44:39 7,2 70,6 19,8 391
101 02-27-20 13:44:39 7,9 70 20,9 402
102 02-27-20 14:44:39 7,9 70,4 21,1 406
103 02-27-20 15:44:39 7 72,3 20,5 410
104 02-27-20 16:44:39 6,7 73,4 20,6 418
105 02-27-20 17:44:39 6,3 72,5 18,9 413
106 02-27-20 18:44:39 5,7 74,1 18,4 414
107 02-27-20 19:44:39 5,3 76,2 18,7 412
108 02-27-20 20:44:39 5 76,9 18,2 416
109 02-27-20 21:44:39 4,9 77,8 18,5 421
110 02-27-20 22:44:39 4,8 78,2 18,4 415
111 02-27-20 23:44:39 4,7 78,5 18,3 412
112 02-28-20 00:44:39 4,5 78,3 17,5 414
113 02-28-20 01:44:39 4,3 77,8 16,4 414
114 02-28-20 02:44:39 4,1 77,9 15,7 415
115 02-28-20 03:44:39 3,8 77,7 14,4 413
116 02-28-20 04:44:39 3,5 77,9 13,3 423
117 02-28-20 05:44:39 3,2 78,8 12,5 425
118 02-28-20 06:44:39 2,9 78 10,5 427
119 02-28-20 07:44:39 2,9 79,5 11,4 436
120 02-28-20 08:44:39 5 76,9 18,2 458
121 02-28-20 09:44:39 12,2 57,4 18,7 441
122 02-28-20 10:44:39 15,7 50,1 17,1 430
123 02-28-20 11:44:39 18,2 41,3 12,4 421
124 02-28-20 12:44:39 26,5 26,5 5,7 425
125 02-28-20 13:44:39 25,1 25,4 4 424
126 02-28-20 14:44:39 17,9 35,5 7,5 440
127 02-28-20 15:44:39 14,7 41,9 9,6 438
128 02-28-20 16:44:39 13,3 45,1 10,6 411
129 02-28-20 17:44:39 10,8 50,7 11,7 408
130 02-28-20 18:44:39 9,2 58,5 15 408
131 02-28-20 19:44:39 8,1 63,2 16,4 405
132 02-28-20 20:44:39 7,6 68,3 19 404
133 02-28-20 21:44:39 7,4 71,8 21,1 402
134 02-28-20 22:44:39 7,5 74,9 23,4 400
135 02-28-20 23:44:39 7,7 75,9 24,6 401
136 02-29-20 00:44:39 8,1 80 28,3 399
137 02-29-20 01:44:39 8,5 81,1 29,9 398
138 02-29-20 02:44:39 9 83,6 32,7 398
139 02-29-20 03:44:39 9,5 82,4 32,8 399
140 02-29-20 04:44:39 9,7 79,6 31,2 400
141 02-29-20 05:44:39 9,4 78,7 30 398
142 02-29-20 06:44:39 9,2 78,2 29,2 397
143 02-29-20 07:44:39 9,2 77,4 28,7 396
144 02-29-20 08:44:39 10,4 75 29,1 396
145 02-29-20 09:44:39 16,6 52,1 19,5 398
146 02-29-20 10:44:39 19,5 40,4 12,7 401
147 02-29-20 11:44:39 20,1 42,1 14,6 403
148 02-29-20 12:44:39 20,1 40 12,8 403
149 02-29-20 13:44:39 19,8 41,5 13,8 404
150 02-29-20 14:44:39 16,9 52 19,7 423
151 02-29-20 15:44:39 16,7 50,8 18,6 403
152 02-29-20 16:44:39 15,2 51,3 17,5 408
153 02-29-20 17:44:39 13 55,2 18 407
154 02-29-20 18:44:39 11,4 60,8 20,1 414
155 02-29-20 19:44:39 10,1 61,8 18,9 406
156 02-29-20 20:44:39 9,1 62,6 17,8 403
157 02-29-20 21:44:39 8,6 64,6 18,4 408
158 02-29-20 22:44:39 8,3 65,6 18,5 405
159 02-29-20 23:44:39 8,1 66,7 18,9 402
160 03-01-20 00:44:39 7,9 66,1 18,1 402
161 03-01-20 01:44:39 7,6 67,2 18,3 399
162 03-01-20 02:44:39 7,4 68,3 18,6 398
163 03-01-20 03:44:39 7,5 68,2 18,8 398
164 03-01-20 04:44:39 7,5 68,5 19 395
165 03-01-20 05:44:39 7,5 71,3 20,9 396
166 03-01-20 06:44:39 7,4 72,4 21,5 404
167 03-01-20 07:44:39 7,1 72,3 20,7 404
168 03-01-20 08:44:39 9,7 67,9 22,7 407
169 03-01-20 09:44:39 11,6 55,8 16,7 400
170 03-01-20 10:44:39 13,8 49,9 14,9 398
171 03-01-20 11:44:39 18,7 40,3 12 407
172 03-01-20 12:44:39 23 31,7 8 414
173 03-01-20 13:44:39 21,8 33,8 9 407
174 03-01-20 14:44:39 17,6 41,3 11,9 404
175 03-01-20 15:44:39 16,2 47,9 15,8 410
176 03-01-20 16:44:39 14,5 53 18,1 405
177 03-01-20 17:44:39 12,7 58 19,8 404
178 03-01-20 18:44:39 11,4 61,6 20,7 410
179 03-01-20 19:44:39 10,4 64,4 21,3 405
180 03-01-20 20:44:39 9,5 65,9 20,9 405
181 03-01-20 21:44:39 8,7 67 20,3 405
182 03-01-20 22:44:39 8 67,9 19,6 403
183 03-01-20 23:44:39 7,4 69,4 19,4 402
184 03-02-20 00:44:39 7 70,9 19,5 407
185 03-02-20 01:44:39 6,6 71,3 18,9 401
186 03-02-20 02:44:39 6,4 73,7 20 396
187 03-02-20 03:44:39 6,5 74,4 20,8 393
188 03-02-20 04:44:39 6,6 73,2 20,2 394
189 03-02-20 05:44:39 6,6 72,8 19,9 405
190 03-02-20 06:44:39 6,6 73,8 20,6 394
191 03-02-20 07:44:39 6,8 74,8 21,8 393
192 03-02-20 08:44:39 7,5 73,8 22,7 394

Partageons !
Author: Bernard Adam
Cuisinier à la retraite

Laisser un commentaire

Votre adresse de messagerie ne sera pas publiée. Les champs obligatoires sont indiqués avec *

5 × 8 =